Back to catalog

ALSAT 1N

AliveScienceSSO
NORAD 41789·PAYLOAD·🇩🇿 Algeria

Launched Sep 26, 2016 from Satish Dhawan Space Centre

Loading…

Next Passes (next 24 hours)

TLE

FreshSource: Space-Track

Epoch: Sep 14, 2026, 11:01 UTC

1 41789U 16059G   26257.45937699  .00000549  00000-0  10033-3 0  9992
2 41789  97.8059 256.8652 0024314 262.8336  97.0106 14.69432226533112

Track ALSAT 1N in real time with AllMySat

Download on the App Store